Voltar ao catálogo

ONEWEB-0333

AtivoComunicaçõesPO
NORAD 49199·PAYLOAD·🇬🇧 United Kingdom

Lançado Sep 14, 2021 de Baikonur Cosmodrome

Loading…

Próximas Passagens (próximas 24 horas)

TLE

AtualizadoSource: CelesTrak SupGP

Época: Sep 14, 2026, 17:54 UTC

1 49199C 21083P   26257.74599954 -.00001460  00000+0 -40028-2 0  2575
2 49199  87.8922 302.4161 0001994  97.1235   2.1114 13.13475156    13

Acompanhe ONEWEB-0333 em tempo real com AllMySat

Download on the App Store